When you browse on this site, cookies collect data to enhance your experience and personalize the content and advertising you see.
Visit our Privacy Policy to learn more. By continuing to use the site, you agree to this use of cookies and data.
  • In United Kingdom
  • List of Countries
  • For 7 days
  • Water Temperature
  • Satellite Maps
  • Weather Map
  • Weather Widgets
  • user-avatar
    Login

    Hourly Weather Havana

    Today, 21 February, Thursday

    Time Temperature Precipitation Wind Pressure Humidity
    00:00 +24°C° 0 mm 3 mps 762 mmHg 84%
    01:00 +23°C° 0 mm 4 mps 762 mmHg 84%
    02:00 +23°C° 0 mm 4 mps 762 mmHg 86%
    03:00 +23°C° 0 mm 4 mps 761 mmHg 88%
    04:00 +23°C° 0 mm 4 mps 761 mmHg 89%
    05:00 +22°C° 0 mm 4 mps 761 mmHg 90%
    06:00 +22°C° 0 mm 4 mps 762 mmHg 91%
    07:00 +22°C° 0 mm 4 mps 762 mmHg 91%
    08:00 +25°C° 0 mm 4 mps 762 mmHg 82%
    09:00 +27°C° 0 mm 4 mps 762 mmHg 72%
    10:00 +29°C° 0 mm 5 mps 762 mmHg 63%
    11:00 +32°C° 0.1 mm 4 mps 762 mmHg 58%
    12:00 +33°C° 0.1 mm 4 mps 762 mmHg 53%
    13:00 +34°C° 0.1 mm 4 mps 762 mmHg 49%
    14:00 +33°C° 0.3 mm 4 mps 762 mmHg 53%
    15:00 +32°C° 0.3 mm 4 mps 762 mmHg 58%
    16:00 +30°C° 0.3 mm 4 mps 761 mmHg 62%
    17:00 +29°C° 0.3 mm 3 mps 761 mmHg 69%
    18:00 +28°C° 0.3 mm 3 mps 761 mmHg 75%
    19:00 +26°C° 0.3 mm 3 mps 761 mmHg 81%
    20:00 +26°C° 0.1 mm 2 mps 762 mmHg 82%
    21:00 +26°C° 0.1 mm 2 mps 762 mmHg 84%
    22:00 +25°C° 0.1 mm 2 mps 763 mmHg 85%
    23:00 +25°C° 0 mm 2 mps 763 mmHg 85%

    Tomorrow, 22 February, Friday

    Time Temperature Precipitation Wind Pressure Humidity
    00:00 +25°C° 0 mm 2 mps 763 mmHg 86%
    01:00 +24°C° 0 mm 2 mps 763 mmHg 86%
    02:00 +24°C° 0 mm 3 mps 763 mmHg 87%
    03:00 +24°C° 0 mm 3 mps 762 mmHg 87%
    04:00 +22°C° 0 mm 4 mps 762 mmHg 88%
    05:00 +22°C° 0 mm 4 mps 762 mmHg 90%
    06:00 +22°C° 0 mm 4 mps 763 mmHg 91%
    07:00 +22°C° 0 mm 4 mps 763 mmHg 93%
    08:00 +25°C° 0 mm 4 mps 763 mmHg 83%
    09:00 +27°C° 0 mm 5 mps 764 mmHg 74%
    10:00 +29°C° 0 mm 5 mps 764 mmHg 64%
    11:00 +32°C° 0 mm 4 mps 764 mmHg 58%
    12:00 +33°C° 0 mm 4 mps 764 mmHg 51%
    13:00 +35°C° 0 mm 4 mps 764 mmHg 44%
    14:00 +34°C° 0.1 mm 4 mps 763 mmHg 50%
    15:00 +32°C° 0.1 mm 4 mps 763 mmHg 56%
    16:00 +30°C° 0.1 mm 4 mps 762 mmHg 63%
    17:00 +29°C° 0.3 mm 4 mps 762 mmHg 69%
    18:00 +28°C° 0.3 mm 4 mps 763 mmHg 76%
    19:00 +27°C° 0.3 mm 4 mps 763 mmHg 82%
    20:00 +26°C° 0 mm 5 mps 763 mmHg 83%
    21:00 +26°C° 0 mm 5 mps 764 mmHg 84%
    22:00 +26°C° 0 mm 5 mps 764 mmHg 85%
    23:00 +25°C° 0 mm 5 mps 764 mmHg 87%

    Day after tomorrow, 23 February, Saturday

    Time Temperature Precipitation Wind Pressure Humidity
    00:00 +25°C° 0 mm 5 mps 764 mmHg 88%
    01:00 +25°C° 0 mm 4 mps 764 mmHg 89%
    02:00 +23°C° 0 mm 4 mps 763 mmHg 90%
    03:00 +23°C° 0 mm 4 mps 763 mmHg 91%
    04:00 +23°C° 0 mm 4 mps 763 mmHg 91%
    05:00 +23°C° 0 mm 4 mps 763 mmHg 92%
    06:00 +23°C° 0 mm 4 mps 763 mmHg 92%
    07:00 +22°C° 0 mm 4 mps 763 mmHg 92%
    08:00 +26°C° 0 mm 4 mps 764 mmHg 82%
    09:00 +28°C° 0 mm 4 mps 764 mmHg 73%
    10:00 +30°C° 0 mm 4 mps 765 mmHg 63%
    11:00 +32°C° 0 mm 4 mps 764 mmHg 56%
    12:00 +34°C° 0 mm 4 mps 764 mmHg 50%
    13:00 +35°C° 0 mm 4 mps 763 mmHg 43%
    14:00 +35°C° 0 mm 4 mps 763 mmHg 45%
    15:00 +34°C° 0 mm 4 mps 762 mmHg 46%
    16:00 +34°C° 0 mm 4 mps 762 mmHg 47%
    17:00 +31°C° 0.1 mm 3 mps 762 mmHg 57%
    18:00 +29°C° 0.1 mm 3 mps 762 mmHg 67%
    19:00 +27°C° 0.1 mm 3 mps 762 mmHg 77%
    20:00 +26°C° 0 mm 2 mps 763 mmHg 81%
    21:00 +26°C° 0 mm 2 mps 763 mmHg 84%
    22:00 +25°C° 0 mm 2 mps 763 mmHg 88%
    23:00 +25°C° 0 mm 2 mps 763 mmHg 88%

    24 February, Sunday

    Time Temperature Precipitation Wind Pressure Humidity
    00:00 +25°C° 0 mm 1 mps 763 mmHg 89%
    01:00 +24°C° 0 mm 1 mps 763 mmHg 90%
    02:00 +24°C° 0 mm 1 mps 763 mmHg 90%
    03:00 +24°C° 0 mm 1 mps 763 mmHg 89%
    04:00 +24°C° 0 mm 1 mps 763 mmHg 89%
    05:00 +24°C° 0 mm 1 mps 763 mmHg 89%
    06:00 +24°C° 0 mm 1 mps 763 mmHg 89%
    07:00 +24°C° 0 mm 1 mps 764 mmHg 89%
    08:00 +26°C° 0 mm 2 mps 764 mmHg 80%
    09:00 +28°C° 0 mm 2 mps 764 mmHg 70%
    10:00 +30°C° 0 mm 2 mps 765 mmHg 61%
    11:00 +31°C° 0 mm 2 mps 764 mmHg 56%
    12:00 +32°C° 0 mm 2 mps 764 mmHg 52%
    13:00 +34°C° 0 mm 2 mps 764 mmHg 47%
    14:00 +34°C° 0.1 mm 3 mps 763 mmHg 50%
    15:00 +33°C° 0.1 mm 4 mps 762 mmHg 54%
    16:00 +32°C° 0.1 mm 4 mps 762 mmHg 57%
    17:00 +30°C° 0.2 mm 4 mps 762 mmHg 64%
    18:00 +28°C° 0.2 mm 4 mps 762 mmHg 72%
    19:00 +27°C° 0.2 mm 4 mps 763 mmHg 79%
    20:00 +27°C° 0.1 mm 4 mps 763 mmHg 81%
    21:00 +26°C° 0.1 mm 4 mps 763 mmHg 83%
    22:00 +26°C° 0.1 mm 4 mps 764 mmHg 85%
    23:00 +25°C° 0 mm 4 mps 764 mmHg 85%

    25 February, Monday

    Time Temperature Precipitation Wind Pressure Humidity
    00:00 +25°C° 0 mm 4 mps 763 mmHg 85%
    01:00 +25°C° 0 mm 4 mps 763 mmHg 85%
    02:00 +25°C° 0 mm 4 mps 763 mmHg 86%
    03:00 +23°C° 0 mm 4 mps 763 mmHg 88%
    04:00 +23°C° 0 mm 4 mps 763 mmHg 89%
    05:00 +23°C° 0 mm 4 mps 763 mmHg 90%
    06:00 +24°C° 0 mm 3 mps 763 mmHg 91%
    07:00 +24°C° 0 mm 3 mps 764 mmHg 92%
    08:00 +26°C° 0 mm 4 mps 764 mmHg 83%
    09:00 +28°C° 0 mm 4 mps 765 mmHg 75%
    10:00 +29°C° 0 mm 5 mps 765 mmHg 66%
    11:00 +30°C° 0 mm 5 mps 765 mmHg 60%
    12:00 +33°C° 0 mm 5 mps 764 mmHg 55%
    13:00 +34°C° 0 mm 6 mps 764 mmHg 49%
    14:00 +33°C° 0 mm 6 mps 764 mmHg 51%
    15:00 +33°C° 0 mm 6 mps 763 mmHg 53%
    16:00 +32°C° 0 mm 7 mps 763 mmHg 55%
    17:00 +29°C° 0 mm 7 mps 763 mmHg 61%
    18:00 +28°C° 0 mm 6 mps 763 mmHg 68%
    19:00 +26°C° 0 mm 6 mps 764 mmHg 74%
    20:00 +26°C° 0 mm 6 mps 764 mmHg 76%
    21:00 +26°C° 0 mm 6 mps 764 mmHg 78%
    22:00 +24°C° 0 mm 6 mps 765 mmHg 80%
    23:00 +24°C° 0 mm 6 mps 765 mmHg 81%

    26 February, Tuesday

    Time Temperature Precipitation Wind Pressure Humidity
    00:00 +25°C° 0 mm 5 mps 764 mmHg 82%
    01:00 +23°C° 0 mm 5 mps 764 mmHg 83%
    02:00 +23°C° 0 mm 5 mps 764 mmHg 84%
    03:00 +23°C° 0 mm 5 mps 764 mmHg 85%
    04:00 +23°C° 0 mm 4 mps 764 mmHg 86%
    05:00 +22°C° 0 mm 4 mps 764 mmHg 87%
    06:00 +22°C° 0 mm 4 mps 764 mmHg 88%
    07:00 +22°C° 0 mm 4 mps 765 mmHg 89%
    08:00 +25°C° 0 mm 4 mps 765 mmHg 80%
    09:00 +27°C° 0 mm 5 mps 765 mmHg 70%
    10:00 +29°C° 0 mm 5 mps 766 mmHg 61%
    11:00 +30°C° 0 mm 5 mps 765 mmHg 55%
    12:00 +32°C° 0 mm 5 mps 765 mmHg 49%
    13:00 +33°C° 0 mm 5 mps 765 mmHg 43%
    14:00 +33°C° 0 mm 5 mps 764 mmHg 46%
    15:00 +32°C° 0 mm 5 mps 764 mmHg 49%
    16:00 +32°C° 0 mm 6 mps 763 mmHg 53%
    17:00 +29°C° 0.1 mm 5 mps 763 mmHg 61%
    18:00 +28°C° 0.1 mm 5 mps 764 mmHg 69%
    19:00 +26°C° 0.1 mm 5 mps 764 mmHg 77%
    20:00 +26°C° 0.1 mm 5 mps 764 mmHg 79%
    21:00 +26°C° 0.1 mm 5 mps 764 mmHg 82%
    22:00 +24°C° 0.1 mm 6 mps 764 mmHg 84%
    23:00 +24°C° 0.1 mm 6 mps 764 mmHg 85%
    Show more